• In Latvia
  • List of Countries
  • For 7 days
  • Water Temperature
  • Satellite Maps
  • Weather Map
  • Weather Widgets
  • user-avatar
    Login

    Hourly Weather Elbasan

    Today, 24 September, Sunday

    Time Temperature Precipitation Wind Pressure Humidity
    00:00 +15°C° 0 mm 1 mps 738 mmHg 72%
    01:00 +15°C° 0 mm 1 mps 738 mmHg 71%
    02:00 +14°C° 0 mm 1 mps 738 mmHg 70%
    03:00 +14°C° 0 mm 1 mps 738 mmHg 69%
    04:00 +14°C° 0 mm 1 mps 738 mmHg 68%
    05:00 +15°C° 0 mm 1 mps 738 mmHg 64%
    06:00 +16°C° 0 mm 1 mps 738 mmHg 61%
    07:00 +18°C° 0 mm 1 mps 738 mmHg 57%
    08:00 +20°C° 0 mm 1 mps 738 mmHg 50%
    09:00 +22°C° 0 mm 1 mps 738 mmHg 43%
    10:00 +24°C° 0 mm 1 mps 738 mmHg 36%
    11:00 +25°C° 0 mm 1 mps 737 mmHg 35%
    12:00 +25°C° 0 mm 2 mps 737 mmHg 34%
    13:00 +26°C° 0 mm 2 mps 737 mmHg 33%
    14:00 +25°C° 0 mm 2 mps 737 mmHg 36%
    15:00 +24°C° 0 mm 2 mps 737 mmHg 39%
    16:00 +24°C° 0 mm 2 mps 737 mmHg 42%
    17:00 +22°C° 0.1 mm 1 mps 737 mmHg 47%
    18:00 +21°C° 0.1 mm 1 mps 737 mmHg 53%
    19:00 +17°C° 0.1 mm 0 mps 737 mmHg 58%
    20:00 +18°C° 0 mm 1 mps 737 mmHg 61%
    21:00 +18°C° 0 mm 1 mps 737 mmHg 64%
    22:00 +16°C° 0 mm 1 mps 737 mmHg 67%
    23:00 +16°C° 0 mm 1 mps 737 mmHg 70%

    Tomorrow, 25 September, Monday

    Time Temperature Precipitation Wind Pressure Humidity
    00:00 +16°C° 0 mm 1 mps 737 mmHg 72%
    01:00 +15°C° 0 mm 2 mps 737 mmHg 75%
    02:00 +15°C° 0 mm 2 mps 736 mmHg 76%
    03:00 +15°C° 0 mm 2 mps 736 mmHg 77%
    04:00 +15°C° 0 mm 2 mps 736 mmHg 79%
    05:00 +16°C° 0 mm 2 mps 736 mmHg 77%
    06:00 +16°C° 0 mm 2 mps 736 mmHg 75%
    07:00 +17°C° 0 mm 2 mps 736 mmHg 72%
    08:00 +19°C° 0.1 mm 2 mps 736 mmHg 66%
    09:00 +22°C° 0.1 mm 1 mps 736 mmHg 59%
    10:00 +23°C° 0.1 mm 1 mps 737 mmHg 52%
    11:00 +24°C° 0.6 mm 2 mps 736 mmHg 52%
    12:00 +24°C° 0.6 mm 2 mps 736 mmHg 51%
    13:00 +24°C° 0.6 mm 2 mps 736 mmHg 50%
    14:00 +23°C° 0.9 mm 2 mps 736 mmHg 54%
    15:00 +23°C° 0.9 mm 2 mps 736 mmHg 58%
    16:00 +21°C° 0.9 mm 2 mps 736 mmHg 61%
    17:00 +20°C° 0.4 mm 2 mps 736 mmHg 66%
    18:00 +19°C° 0.4 mm 2 mps 736 mmHg 71%
    19:00 +19°C° 0.4 mm 1 mps 737 mmHg 76%
    20:00 +18°C° 0 mm 1 mps 737 mmHg 77%
    21:00 +18°C° 0 mm 1 mps 737 mmHg 78%
    22:00 +16°C° 0 mm 2 mps 737 mmHg 80%
    23:00 +16°C° 0 mm 2 mps 737 mmHg 80%

    Day after tomorrow, 26 September, Tuesday

    Time Temperature Precipitation Wind Pressure Humidity
    00:00 +15°C° 0 mm 2 mps 737 mmHg 79%
    01:00 +15°C° 0 mm 2 mps 737 mmHg 79%
    02:00 +15°C° 0 mm 2 mps 737 mmHg 79%
    03:00 +15°C° 0 mm 2 mps 737 mmHg 78%
    04:00 +15°C° 0 mm 2 mps 736 mmHg 78%
    05:00 +15°C° 0 mm 2 mps 737 mmHg 75%
    06:00 +16°C° 0 mm 2 mps 737 mmHg 72%
    07:00 +17°C° 0 mm 2 mps 737 mmHg 69%
    08:00 +20°C° 0 mm 1 mps 737 mmHg 62%
    09:00 +22°C° 0 mm 1 mps 737 mmHg 54%
    10:00 +24°C° 0 mm 1 mps 737 mmHg 47%
    11:00 +24°C° 0.3 mm 1 mps 737 mmHg 45%
    12:00 +25°C° 0.3 mm 2 mps 737 mmHg 44%
    13:00 +26°C° 0.3 mm 2 mps 737 mmHg 42%
    14:00 +25°C° 0.5 mm 2 mps 737 mmHg 45%
    15:00 +24°C° 0.5 mm 2 mps 737 mmHg 47%
    16:00 +24°C° 0.5 mm 2 mps 736 mmHg 49%
    17:00 +21°C° 0.3 mm 2 mps 737 mmHg 56%
    18:00 +19°C° 0.3 mm 2 mps 737 mmHg 63%
    19:00 +19°C° 0.3 mm 1 mps 737 mmHg 70%
    20:00 +18°C° 0.1 mm 1 mps 738 mmHg 71%
    21:00 +18°C° 0.1 mm 1 mps 738 mmHg 72%
    22:00 +18°C° 0.1 mm 1 mps 738 mmHg 73%
    23:00 +16°C° 0 mm 1 mps 738 mmHg 73%

    27 September, Wednesday

    Time Temperature Precipitation Wind Pressure Humidity
    00:00 +16°C° 0 mm 1 mps 738 mmHg 73%
    01:00 +16°C° 0 mm 1 mps 738 mmHg 73%
    02:00 +16°C° 0 mm 1 mps 738 mmHg 73%
    03:00 +15°C° 0 mm 1 mps 738 mmHg 73%
    04:00 +15°C° 0 mm 2 mps 738 mmHg 73%
    05:00 +16°C° 0 mm 2 mps 738 mmHg 71%
    06:00 +17°C° 0 mm 2 mps 738 mmHg 69%
    07:00 +18°C° 0 mm 2 mps 739 mmHg 67%
    08:00 +21°C° 0 mm 1 mps 739 mmHg 59%
    09:00 +23°C° 0 mm 1 mps 739 mmHg 52%
    10:00 +25°C° 0 mm 1 mps 739 mmHg 44%
    11:00 +25°C° 0 mm 1 mps 739 mmHg 43%
    12:00 +26°C° 0 mm 2 mps 739 mmHg 41%
    13:00 +26°C° 0 mm 2 mps 739 mmHg 39%
    14:00 +26°C° 0.1 mm 2 mps 739 mmHg 43%
    15:00 +25°C° 0.1 mm 2 mps 739 mmHg 46%
    16:00 +24°C° 0.1 mm 2 mps 739 mmHg 50%
    17:00 +23°C° 0.1 mm 2 mps 739 mmHg 55%
    18:00 +21°C° 0.1 mm 1 mps 739 mmHg 61%
    19:00 +20°C° 0.1 mm 1 mps 739 mmHg 67%
    20:00 +19°C° 0 mm 1 mps 739 mmHg 68%
    21:00 +19°C° 0 mm 1 mps 739 mmHg 69%
    22:00 +19°C° 0 mm 1 mps 740 mmHg 70%
    23:00 +18°C° 0 mm 1 mps 740 mmHg 70%

    28 September, Thursday

    Time Temperature Precipitation Wind Pressure Humidity
    00:00 +18°C° 0 mm 1 mps 739 mmHg 71%
    01:00 +16°C° 0 mm 2 mps 739 mmHg 72%
    02:00 +16°C° 0 mm 2 mps 739 mmHg 73%
    03:00 +16°C° 0 mm 2 mps 739 mmHg 73%
    04:00 +16°C° 0 mm 2 mps 739 mmHg 74%
    05:00 +16°C° 0 mm 2 mps 739 mmHg 72%
    06:00 +17°C° 0 mm 2 mps 739 mmHg 70%
    07:00 +18°C° 0 mm 2 mps 739 mmHg 69%
    08:00 +20°C° 0 mm 2 mps 740 mmHg 62%
    09:00 +21°C° 0 mm 2 mps 740 mmHg 55%
    10:00 +24°C° 0 mm 2 mps 740 mmHg 48%
    11:00 +25°C° 0.3 mm 2 mps 739 mmHg 47%
    12:00 +25°C° 0.3 mm 2 mps 739 mmHg 46%
    13:00 +26°C° 0.3 mm 2 mps 739 mmHg 44%
    14:00 +25°C° 0.6 mm 2 mps 739 mmHg 47%
    15:00 +24°C° 0.6 mm 2 mps 739 mmHg 50%
    16:00 +24°C° 0.6 mm 3 mps 739 mmHg 54%
    17:00 +21°C° 0.4 mm 2 mps 739 mmHg 60%
    18:00 +20°C° 0.4 mm 2 mps 739 mmHg 66%
    19:00 +18°C° 0.4 mm 2 mps 739 mmHg 72%
    20:00 +18°C° 0.1 mm 2 mps 739 mmHg 73%
    21:00 +18°C° 0.1 mm 2 mps 739 mmHg 75%
    22:00 +17°C° 0.1 mm 2 mps 740 mmHg 76%
    23:00 +17°C° 0 mm 2 mps 740 mmHg 76%

    29 September, Friday

    Time Temperature Precipitation Wind Pressure Humidity
    00:00 +16°C° 0 mm 2 mps 739 mmHg 76%
    01:00 +16°C° 0 mm 2 mps 739 mmHg 76%
    02:00 +16°C° 0 mm 2 mps 739 mmHg 77%
    03:00 +15°C° 0 mm 2 mps 739 mmHg 78%
    04:00 +15°C° 0 mm 2 mps 739 mmHg 79%
    05:00 +15°C° 0 mm 2 mps 739 mmHg 77%
    06:00 +16°C° 0 mm 2 mps 739 mmHg 75%
    07:00 +16°C° 0 mm 3 mps 739 mmHg 73%
    08:00 +18°C° 0 mm 3 mps 739 mmHg 66%
    09:00 +20°C° 0 mm 2 mps 739 mmHg 58%
    10:00 +21°C° 0 mm 2 mps 739 mmHg 51%
    11:00 +23°C° 0 mm 2 mps 739 mmHg 48%
    12:00 +24°C° 0 mm 2 mps 739 mmHg 45%
    13:00 +24°C° 0 mm 2 mps 738 mmHg 42%
    14:00 +24°C° 0 mm 2 mps 738 mmHg 44%
    15:00 +23°C° 0 mm 2 mps 738 mmHg 45%
    16:00 +23°C° 0 mm 2 mps 738 mmHg 46%
    17:00 +20°C° 0 mm 2 mps 738 mmHg 50%
    18:00 +19°C° 0 mm 2 mps 738 mmHg 53%
    19:00 +17°C° 0 mm 2 mps 739 mmHg 56%
    20:00 +17°C° 0 mm 2 mps 739 mmHg 58%
    21:00 +16°C° 0 mm 2 mps 739 mmHg 60%
    22:00 +15°C° 0 mm 2 mps 739 mmHg 61%
    23:00 +15°C° 0 mm 2 mps 739 mmHg 62%
    Show more